EHI
0 0 0 0 0 0 0 0 0 0 0 0 0 0 0 0 0 0 0 0 0 0 0 0 0 0 0 0 0 0 0 0 0 0 0 0 0 0
0 0 0 0 0 0 0 0 0 0 0 0 0 0 0 0 0 0 0 0 0 0 0 0 0 0 0 0 0 0 0 0 0 0 0 0 0 0
0 0 0 0 0 0 0 0 0 0 0 0 0 0 0 0 0 0 0 0 0 0 0 0 0 0 0 0 0 0 0 0 0 0 0 0 0 0
0 0 0 0 0 0 0 0 0 0 0 0 0 0 0 0 0 0 0 0 0 0 0 0 0 0 0 0 0 0 0 0 0 0 0 0 0 0
0 0 0 0 0 0 0 0 0 0 0 0 0 0 0 0 0 0 0 0 0 0 0 0 0 0 0 0 0 0 0 0 0 0 0 0 0 0
0 0 0 0 0 0 0 0 0 0 0 0 0 0 0 0 0 0 0 0 0 0 0 0 0 0 0 0 0 0 0 0 0 0 0 0 0 0
0 0 0 0 0 0 0 0 0 0 0 0 0 0 0 0 0 0 0 0 0 0 0 0 0 0 0 0 0 0 0 0 0 0 0 0 0 0
0 0 0 0 0 0 0 0 0 0 0 0 0 0 0 0 0 0 0 0 0 0 0 0 0 0 0 0 0 0 0 0 0 0 0 0 0 0
0 0 0 0 0 0 0 0 0 0 0 0 0 0 0 0 0 0 0 0 0 0 0 0 0 0 0 0 0 0 0 0 0 0 0 0 0 0
0 0 0 0 0 0 0 0 0 0 0 0 0 0 0 0 0 0 0 0 0 0 0 0 0 0 0 0 0 0 0 0 0 0 0 0 0 0
0 0 0 0 0 0 0 0 0 0 0 0 0 0 0 0 0 0 0 0 0 0 0 0 0 0 0 0 0 0 0 0 0 0 0 0 0 0
0 0 0 0 0 0 0 0 0 0 0 0 0 0 0 0 0 0 0 0 0 0 0 0 0 0 0 0 0 0 0 0 0 0 0 0 0 0
0 0 0 0 0 0 0 0 0 0 0 0 0 0 0 0 0 0 0 0 0 0 0 0 0 0 0 0 0 0 0 0 0 0 0 0 0 0
0 0 0 0 0 0 0 0 0 0 0 0 0 0 0 0 0 0 0 0 0 0 0 0 0 0 0 0 0 0 0 0 0 0 0 0 0 0
0 0 0 0 0 0 0 0 0 0 0 0 0 0 0 0 0 0 0 0 0 0 0 0 0 0 0 0 0 0 0 0 0 0 0 0 0 0
0 0 0 0 0 0 0 0 0 0 0 0 0 0 0 0 0 0 0 0 0 0 0 0 0 0 0 0 0 0 0 0 0 0 0 0 0 0
0 0 0 0 0 0 0 0 0 0 0 0 0 0 0 0 0 0 0 0 0 0 0 0 0 0 0 0 0 0 0 0 0 0 0 0 0 0
0 0 0 0 0 0 0 0 0 0 0 0 0 0 0 0 0 0 0 0 0 0 0 0 0 0 0 0 0 0 0 0 0 0 0 0 0 0
0 0 0 0 0 0 0 0 0 0 0 0 0 0 0 0 0 0 0 0 0 0 0 0 0 0 0 0 0 0 0 0 0 0 0 0 0 0
0 0 0 0 0 0 0 0 0 0 0 0 0 0 0 0 0 0 0 0 0 0 0 0 0 0 0 0 0 0 0 0 0 0 0 0 0 0
0 0 0 0 0 0 0 0 0 0 0 0 0 0 0 0 0 0 0 0 0 0 0 0 0 0 0 0 0 0 0 0 0 0 0 0 0 0
0 0 0 0 0 0 0 0 0 0 0 0 0 0 0 0 0 0 0 0 0 0 0 0 0 0 0 0 0 0 0 0 0 0 0 0 0 0
0 0 0 0 0 0 0 0 0 0 0 0 0 0 0 0 0 0 0 0 0 0 0 0 0 0 0 0 0 0 0 0 0 0 0 0 0 0
Wind_Speed
7 8 7 6 5 6 7 7 8 7 5 4 3 1 0 1 5 6 6 12 14 20 23 24 24 24 25 25 25 24 24 24 22 20 19 17 16 15
7 9 9 8 8 8 8 7 7 7 8 4 4 3 2 2 6 6 6 13 13 21 25 23 24 23 22 24 24 24 24 23 21 18 17 16 16 15
11 11 13 12 9 9 9 8 8 8 9 6 3 4 3 5 5 7 6 7 8 18 25 26 24 23 23 24 24 23 21 21 20 18 16 15 14 13
13 13 13 11 12 11 10 10 10 9 9 7 4 4 3 5 8 8 7 7 9 19 22 26 25 25 23 23 22 22 21 20 18 15 14 15 15 16
13 14 14 14 14 12 12 11 9 9 9 6 6 4 4 6 9 8 9 8 8 14 16 20 23 23 22 21 21 22 20 17 16 16 17 17 17 17
13 14 15 15 14 13 13 13 11 10 8 7 9 9 9 7 8 9 10 8 7 7 10 12 17 20 20 20 19 20 18 18 17 18 18 19 19 18
12 12 12 15 19 17 12 10 10 9 7 8 10 8 8 9 8 8 11 9 7 5 6 7 8 9 11 14 15 18 18 18 18 19 18 17 17 18
10 10 10 12 13 15 17 16 12 10 7 9 9 12 12 11 11 11 12 10 6 2 5 7 7 9 8 9 15 18 18 19 19 19 18 17 16 15
10 10 9 8 10 9 12 14 12 11 16 14 14 14 14 13 14 12 9 9 8 5 6 9 8 10 8 9 15 17 17 17 17 16 16 15 14 12
12 13 11 9 8 5 3 2 2 6 11 10 13 13 14 15 13 14 13 14 12 6 5 10 10 9 7 7 11 13 12 12 13 12 11 11 11 11
12 13 13 10 13 12 8 7 7 8 13 17 18 20 22 23 20 16 14 14 11 6 5 8 10 8 6 5 7 12 12 12 12 8 7 7 7 7
10 12 17 16 17 16 11 10 13 13 18 19 22 23 20 21 20 15 14 12 11 8 4 6 8 5 5 4 4 5 10 17 19 17 10 8 6 4
8 9 11 18 18 17 14 12 14 15 18 17 15 13 12 11 10 9 9 9 8 7 10 8 6 3 6 4 2 3 5 6 8 11 14 15 13 8
8 8 10 16 17 16 12 14 14 13 11 11 10 9 9 9 9 10 9 5 8 12 12 7 6 8 7 7 5 5 6 6 5 4 4 8 10 10
10 12 14 16 15 13 15 14 10 8 8 8 8 8 8 9 10 10 7 8 13 11 7 7 9 8 6 6 6 8 7 5 4 3 4 4 4 3
11 12 13 12 13 13 11 9 7 7 7 7 7 8 7 8 7 8 8 10 9 6 7 10 10 10 9 8 8 7 5 4 2 3 3 4 3 4
9 8 9 10 10 10 9 8 7 6 7 7 8 8 6 7 8 10 10 9 9 9 9 9 10 10 9 9 9 7 7 5 3 2 3 4 4 5
9 9 9 9 9 9 8 8 8 6 5 6 7 6 7 9 10 9 10 10 10 9 9 9 11 11 9 9 9 7 5 3 2 2 3 4 4 5
8 8 8 8 8 8 7 7 6 5 4 5 6 7 8 9 11 10 10 10 9 9 8 9 9 10 12 10 6 6 6 3 3 2 2 3 2 2
8 7 7 7 7 7 7 7 6 6 4 4 4 6 7 9 9 9 9 10 9 8 8 8 7 6 8 9 6 3 4 5 4 3 2 2 1 2
7 7 7 6 6 6 6 6 6 5 4 3 4 6 6 8 9 8 9 12 10 9 8 7 7 8 5 5 6 3 4 3 5 5 3 1 0 1
7 7 7 7 6 5 5 5 5 5 5 3 4 6 6 8 8 9 9 10 8 7 8 7 7 7 5 5 5 4 3 3 6 8 4 2 2 1
7 7 6 6 6 6 5 5 5 5 4 3 4 6 6 7 7 8 9 10 10 9 9 7 5 4 4 4 4 4 6 4 6 9 8 11 13 11
Wind_Direction
269 266 266 271 263 251 241 242 265 277 276 232 203 156 172 62 40 356 357 47 72 89 88 87 87 86 88 90 89 90 91 90 87 84 81 79 81 83
276 278 273 270 273 268 257 246 234 253 264 229 194 162 173 88 63 42 25 52 63 85 87 85 85 87 89 93 95 92 90 88 86 85 86 86 83 81
279 277 271 269 266 264 260 251 238 231 244 235 172 146 135 111 80 59 31 47 62 79 87 85 82 82 81 84 86 85 84 82 80 77 76 77 78 80
284 282 278 277 271 264 258 250 241 232 231 224 153 137 120 123 106 89 70 55 65 72 77 82 83 80 79 79 79 77 74 74 76 78 83 85 83 78
283 278 274 267 260 256 253 250 242 233 221 203 143 132 131 127 112 102 86 75 67 73 72 76 80 81 81 81 79 76 72 71 72 75 77 77 75 73
281 274 266 258 253 253 249 240 238 234 220 182 149 149 143 137 127 123 105 85 68 57 65 72 79 82 81 81 82 84 81 74 73 73 73 74 73 72
292 287 280 272 263 263 267 247 234 229 213 160 147 146 146 146 140 132 116 106 74 45 60 54 60 61 64 72 77 87 87 85 84 80 76 75 76 77
306 307 303 296 284 278 279 275 258 216 167 154 153 152 157 148 140 142 130 128 103 34 84 78 74 72 61 72 85 87 87 84 81 81 81 79 78 76
325 329 322 309 297 276 271 268 260 212 170 157 156 159 153 147 137 131 126 111 106 120 108 91 82 77 65 72 80 79 80 81 80 81 83 83 79 78
346 351 344 329 320 295 285 314 249 174 153 145 142 139 133 132 128 121 114 107 105 102 96 99 96 84 65 55 65 62 65 78 87 90 91 88 83 77
352 354 357 1 9 32 39 50 63 86 90 99 108 116 122 124 124 120 123 124 118 111 98 107 109 94 61 26 34 55 65 72 67 73 111 113 101 86
354 354 6 18 24 31 43 58 71 84 96 94 95 99 107 113 119 124 133 130 125 121 136 117 126 117 80 18 23 52 68 73 63 59 83 86 82 81
10 3 8 21 30 34 47 60 76 87 94 97 101 105 108 109 113 115 122 130 129 121 143 138 141 122 112 117 93 67 72 59 55 50 61 68 73 79
18 14 11 20 34 37 47 58 72 85 91 97 103 109 113 118 117 120 133 128 117 128 137 129 126 130 126 125 109 100 79 63 65 52 39 51 58 63
18 16 18 24 28 35 41 45 62 82 95 101 104 109 113 120 125 133 113 110 122 130 130 124 124 123 114 114 114 109 94 56 46 49 46 49 38 21
10 15 19 27 29 29 33 32 45 64 84 96 100 107 108 117 121 119 114 120 114 89 94 111 113 113 111 110 108 107 108 97 51 38 54 49 33 29
14 21 24 21 23 23 23 24 36 56 76 91 103 115 112 102 106 115 119 115 110 114 114 109 105 101 99 104 106 102 100 93 90 68 60 62 34 29
27 29 28 23 22 16 14 17 29 42 59 86 101 110 103 105 108 107 113 116 117 117 116 118 115 109 98 88 101 113 109 108 94 73 47 68 47 19
30 29 25 24 19 14 12 12 15 22 56 78 103 110 108 110 112 114 117 116 115 115 115 119 123 128 128 122 99 96 123 122 110 74 42 49 53 353
27 25 23 17 17 14 9 8 6 10 37 68 91 110 112 117 115 117 122 121 118 115 113 118 123 128 133 133 122 84 97 131 134 113 70 41 346 307
25 20 17 14 14 13 9 6 5 7 19 55 105 118 110 118 117 119 125 123 119 116 114 113 117 116 108 101 96 83 41 63 124 129 128 110 271 301
23 19 13 6 7 14 9 6 6 7 11 28 103 115 106 111 116 123 127 123 116 109 108 109 109 103 83 100 112 111 96 51 64 84 80 127 132 84
16 18 13 7 0 5 10 6 5 3 3 14 93 110 107 110 114 117 122 119 115 115 118 116 106 95 95 112 112 105 105 95 97 94 63 57 64 61